When you browse on this site, cookies collect data to enhance your experience and personalize the content and advertising you see.
Visit our Privacy Policy to learn more. By continuing to use the site, you agree to this use of cookies and data.
  • In Latvia
  • List of Countries
  • For 7 days
  • Water Temperature
  • Satellite Maps
  • Weather Map
  • Weather Widgets
  • user-avatar
    Login

    Hourly Weather Andora

    Today, 24 July, Wednesday

    Time Temperature Precipitation Wind Pressure Humidity
    00:00 +18°C° 0 mm 1 mps 628 mmHg 52%
    01:00 +18°C° 0 mm 1 mps 628 mmHg 51%
    02:00 +18°C° 0 mm 1 mps 627 mmHg 49%
    03:00 +18°C° 0 mm 1 mps 627 mmHg 48%
    04:00 +18°C° 0 mm 1 mps 627 mmHg 48%
    05:00 +19°C° 0 mm 1 mps 628 mmHg 48%
    06:00 +20°C° 0 mm 1 mps 628 mmHg 48%
    07:00 +22°C° 0 mm 1 mps 629 mmHg 41%
    08:00 +25°C° 0 mm 1 mps 630 mmHg 35%
    09:00 +28°C° 0 mm 1 mps 631 mmHg 28%
    10:00 +28°C° 0 mm 1 mps 631 mmHg 27%
    11:00 +29°C° 0 mm 2 mps 631 mmHg 25%
    12:00 +30°C° 0 mm 2 mps 631 mmHg 24%
    13:00 +30°C° 0 mm 2 mps 631 mmHg 25%
    14:00 +29°C° 0 mm 2 mps 630 mmHg 26%
    15:00 +29°C° 0 mm 2 mps 630 mmHg 27%
    16:00 +28°C° 0 mm 2 mps 629 mmHg 35%
    17:00 +26°C° 0 mm 2 mps 629 mmHg 42%
    18:00 +25°C° 0 mm 1 mps 628 mmHg 50%
    19:00 +23°C° 0 mm 1 mps 628 mmHg 55%
    20:00 +21°C° 0 mm 1 mps 627 mmHg 60%
    21:00 +19°C° 0 mm 1 mps 627 mmHg 65%
    22:00 +18°C° 0 mm 1 mps 627 mmHg 64%
    23:00 +18°C° 0 mm 1 mps 626 mmHg 62%

    Tomorrow, 25 July, Thursday

    Time Temperature Precipitation Wind Pressure Humidity
    00:00 +18°C° 0 mm 1 mps 626 mmHg 60%
    01:00 +18°C° 0 mm 1 mps 626 mmHg 59%
    02:00 +18°C° 0 mm 1 mps 626 mmHg 58%
    03:00 +18°C° 0 mm 1 mps 626 mmHg 56%
    04:00 +18°C° 0 mm 1 mps 626 mmHg 55%
    05:00 +19°C° 0 mm 1 mps 626 mmHg 53%
    06:00 +19°C° 0 mm 1 mps 626 mmHg 51%
    07:00 +22°C° 0 mm 1 mps 627 mmHg 44%
    08:00 +24°C° 0 mm 1 mps 628 mmHg 36%
    09:00 +27°C° 0 mm 2 mps 630 mmHg 28%
    10:00 +28°C° 0 mm 2 mps 630 mmHg 27%
    11:00 +29°C° 0 mm 2 mps 630 mmHg 26%
    12:00 +30°C° 0 mm 2 mps 630 mmHg 25%
    13:00 +29°C° 0 mm 2 mps 629 mmHg 27%
    14:00 +29°C° 0 mm 2 mps 629 mmHg 28%
    15:00 +29°C° 0 mm 3 mps 628 mmHg 29%
    16:00 +27°C° 0 mm 2 mps 628 mmHg 36%
    17:00 +26°C° 0 mm 2 mps 627 mmHg 42%
    18:00 +25°C° 0 mm 2 mps 627 mmHg 49%
    19:00 +23°C° 0 mm 2 mps 626 mmHg 54%
    20:00 +20°C° 0 mm 1 mps 626 mmHg 59%
    21:00 +18°C° 0 mm 1 mps 625 mmHg 63%
    22:00 +18°C° 0 mm 1 mps 625 mmHg 63%
    23:00 +18°C° 0 mm 1 mps 625 mmHg 63%

    Day after tomorrow, 26 July, Friday

    Time Temperature Precipitation Wind Pressure Humidity
    00:00 +16°C° 0 mm 1 mps 625 mmHg 63%
    01:00 +16°C° 0 mm 1 mps 624 mmHg 64%
    02:00 +16°C° 0 mm 1 mps 624 mmHg 64%
    03:00 +15°C° 0 mm 1 mps 624 mmHg 65%
    04:00 +16°C° 0 mm 1 mps 624 mmHg 63%
    05:00 +18°C° 0 mm 1 mps 624 mmHg 61%
    06:00 +18°C° 0 mm 1 mps 624 mmHg 59%
    07:00 +20°C° 0 mm 1 mps 625 mmHg 52%
    08:00 +23°C° 0 mm 1 mps 626 mmHg 45%
    09:00 +25°C° 0 mm 2 mps 627 mmHg 38%
    10:00 +25°C° 0 mm 2 mps 627 mmHg 37%
    11:00 +26°C° 0 mm 2 mps 627 mmHg 36%
    12:00 +26°C° 0 mm 3 mps 627 mmHg 36%
    13:00 +25°C° 0.2 mm 3 mps 626 mmHg 40%
    14:00 +24°C° 0.2 mm 3 mps 625 mmHg 45%
    15:00 +22°C° 0.2 mm 3 mps 625 mmHg 50%
    16:00 +21°C° 0.6 mm 3 mps 624 mmHg 56%
    17:00 +20°C° 0.6 mm 2 mps 624 mmHg 62%
    18:00 +19°C° 0.6 mm 2 mps 623 mmHg 69%
    19:00 +17°C° 1.7 mm 2 mps 623 mmHg 75%
    20:00 +16°C° 1.7 mm 1 mps 623 mmHg 80%
    21:00 +15°C° 1.7 mm 1 mps 622 mmHg 86%
    22:00 +14°C° 0.1 mm 1 mps 622 mmHg 88%
    23:00 +13°C° 0.1 mm 1 mps 622 mmHg 89%

    27 July, Saturday

    Time Temperature Precipitation Wind Pressure Humidity
    00:00 +13°C° 0.1 mm 1 mps 621 mmHg 91%
    01:00 +12°C° 0.2 mm 1 mps 621 mmHg 92%
    02:00 +12°C° 0.2 mm 2 mps 621 mmHg 93%
    03:00 +12°C° 0.2 mm 2 mps 621 mmHg 94%
    04:00 +12°C° 0.6 mm 2 mps 621 mmHg 94%
    05:00 +12°C° 0.6 mm 2 mps 621 mmHg 93%
    06:00 +13°C° 0.6 mm 2 mps 621 mmHg 93%
    07:00 +13°C° 0.7 mm 2 mps 621 mmHg 89%
    08:00 +14°C° 0.7 mm 2 mps 622 mmHg 85%
    09:00 +15°C° 0.7 mm 2 mps 622 mmHg 82%
    10:00 +15°C° 0.9 mm 2 mps 622 mmHg 81%
    11:00 +15°C° 0.9 mm 2 mps 622 mmHg 80%
    12:00 +15°C° 0.9 mm 2 mps 622 mmHg 79%
    13:00 +15°C° 0.9 mm 2 mps 621 mmHg 78%
    14:00 +15°C° 0.9 mm 2 mps 621 mmHg 78%
    15:00 +15°C° 0.9 mm 2 mps 621 mmHg 78%
    16:00 +14°C° 0.4 mm 2 mps 621 mmHg 80%
    17:00 +13°C° 0.4 mm 2 mps 621 mmHg 82%
    18:00 +12°C° 0.4 mm 2 mps 620 mmHg 84%
    19:00 +10°C° 0 mm 2 mps 620 mmHg 86%
    20:00 +9°C° 0 mm 2 mps 620 mmHg 87%
    21:00 +8°C° 0 mm 2 mps 621 mmHg 89%
    22:00 +8°C° 0 mm 2 mps 620 mmHg 89%
    23:00 +7°C° 0 mm 2 mps 620 mmHg 89%

    28 July, Sunday

    Time Temperature Precipitation Wind Pressure Humidity
    00:00 +7°C° 0 mm 2 mps 620 mmHg 90%
    01:00 +6°C° 0 mm 2 mps 620 mmHg 90%
    02:00 +6°C° 0 mm 2 mps 620 mmHg 91%
    03:00 +5°C° 0 mm 2 mps 620 mmHg 91%
    04:00 +6°C° 0 mm 2 mps 620 mmHg 89%
    05:00 +6°C° 0 mm 2 mps 620 mmHg 87%
    06:00 +7°C° 0 mm 2 mps 621 mmHg 85%
    07:00 +9°C° 0 mm 2 mps 622 mmHg 74%
    08:00 +12°C° 0 mm 2 mps 623 mmHg 64%
    09:00 +14°C° 0 mm 2 mps 624 mmHg 54%
    10:00 +15°C° 0 mm 2 mps 624 mmHg 47%
    11:00 +17°C° 0 mm 2 mps 624 mmHg 41%
    12:00 +18°C° 0 mm 2 mps 625 mmHg 34%
    13:00 +18°C° 0 mm 2 mps 625 mmHg 35%
    14:00 +19°C° 0 mm 2 mps 625 mmHg 36%
    15:00 +19°C° 0 mm 2 mps 625 mmHg 38%
    16:00 +17°C° 0 mm 2 mps 624 mmHg 47%
    17:00 +16°C° 0 mm 2 mps 624 mmHg 57%
    18:00 +15°C° 0 mm 2 mps 623 mmHg 66%
    19:00 +13°C° 0 mm 2 mps 623 mmHg 75%
    20:00 +10°C° 0 mm 2 mps 623 mmHg 83%
    21:00 +8°C° 0 mm 2 mps 623 mmHg 91%
    22:00 +9°C° 0 mm 1 mps 623 mmHg 91%
    23:00 +9°C° 0 mm 1 mps 623 mmHg 90%

    29 July, Monday

    Time Temperature Precipitation Wind Pressure Humidity
    00:00 +8°C° 0 mm 1 mps 623 mmHg 90%
    01:00 +8°C° 0 mm 1 mps 622 mmHg 87%
    02:00 +8°C° 0 mm 1 mps 622 mmHg 85%
    03:00 +8°C° 0 mm 1 mps 622 mmHg 83%
    04:00 +9°C° 0 mm 1 mps 622 mmHg 78%
    05:00 +10°C° 0 mm 1 mps 623 mmHg 74%
    06:00 +11°C° 0 mm 1 mps 623 mmHg 70%
    07:00 +14°C° 0 mm 1 mps 624 mmHg 60%
    08:00 +16°C° 0 mm 1 mps 626 mmHg 49%
    09:00 +20°C° 0 mm 1 mps 627 mmHg 39%
    10:00 +21°C° 0 mm 1 mps 627 mmHg 37%
    11:00 +21°C° 0 mm 2 mps 627 mmHg 36%
    12:00 +24°C° 0 mm 2 mps 627 mmHg 34%
    13:00 +24°C° 0 mm 2 mps 627 mmHg 34%
    14:00 +24°C° 0 mm 2 mps 627 mmHg 34%
    15:00 +24°C° 0 mm 2 mps 627 mmHg 34%
    16:00 +23°C° 0 mm 2 mps 626 mmHg 40%
    17:00 +22°C° 0 mm 1 mps 626 mmHg 46%
    18:00 +21°C° 0 mm 1 mps 625 mmHg 51%
    19:00 +18°C° 0 mm 1 mps 625 mmHg 57%
    20:00 +15°C° 0 mm 1 mps 624 mmHg 63%
    21:00 +13°C° 0 mm 1 mps 624 mmHg 69%
    22:00 +13°C° 0 mm 1 mps 624 mmHg 69%
    23:00 +13°C° 0 mm 1 mps 624 mmHg 69%
    Show more